This is the latest recevied weather packets stored in our database for station/object PY2XH-13. If no packets are shown the sender has not sent any weather packets the latest 10 day(s).
| Time | Temp. | Humidity | Pressure | Rain* | Wind** | Luminosity | Snow |
|---|---|---|---|---|---|---|---|
| 1777517165 | 23.89° C | 64% | 1032.7 hPa | - | - | - | - |
| 1777515365 | 23.33° C | 64% | 1032.6 hPa | - | - | - | - |
| 1777513565 | 23.89° C | 63% | 1033.4 hPa | - | - | - | - |
| 1777511765 | 23.89° C | 64% | 1033 hPa | - | - | - | - |
| 1777509965 | 23.89° C | 64% | 1032.6 hPa | - | - | - | - |
| 1777508165 | 23.33° C | 64% | 1032.3 hPa | - | - | - | - |
| 1777506364 | 23.33° C | 62% | 1032.4 hPa | - | - | - | - |
| 1777504565 | 23.33° C | 63% | 1031.8 hPa | - | - | - | - |
| 1777502765 | 23.33° C | 63% | 1031.8 hPa | - | - | - | - |
| 1777500965 | 23.33° C | 63% | 1031.4 hPa | - | - | - | - |
| 1777499165 | 23.33° C | 62% | 1031 hPa | - | - | - | - |
| 1777497364 | 23.89° C | 62% | 1031.6 hPa | - | - | - | - |
| 1777495565 | 23.33° C | 63% | 1031.9 hPa | - | - | - | - |
| 1777493765 | 23.33° C | 61% | 1032.2 hPa | - | - | - | - |
| 1777491965 | 23.89° C | 61% | 1031.4 hPa | - | - | - | - |
| 1777490165 | 24.44° C | 63% | 1030.5 hPa | - | - | - | - |
| 1777488364 | 24.44° C | 64% | 1030.1 hPa | - | - | - | - |
| 1777486565 | 25° C | 68% | 1029.5 hPa | - | - | - | - |
| 1777484764 | 25.56° C | 70% | 1029.1 hPa | - | - | - | - |
| 1777482965 | 25.56° C | 60% | 1028.9 hPa | - | - | - | - |
| 1777481165 | 26.11° C | 57% | 1029 hPa | - | - | - | - |
| 1777479364 | 26.11° C | 58% | 1029.3 hPa | - | - | - | - |
| 1777477564 | 25.56° C | 58% | 1029.7 hPa | - | - | - | - |
| 1777475765 | 25.56° C | 60% | 1030 hPa | - | - | - | - |
| 1777473965 | 25.56° C | 63% | 1030.2 hPa | - | - | - | - |
* Rain since midnight (hover to see other rain measurements)
** Current wind speed in m/s (hover to see current wind gust speed)